Location: ?????oe
(44.4874°N, 135.7046°E)
Time: 04:20:36
(UTC+00:00)

Cosmos 2266 Rocket - Visible Passes

Search period start: 08 March 2026 00:00
Search period end: 18 March 2026 00:00
Orbit: 934 x 1006 km, 82.9° (Epoch: 8 March)

Date Brightness Start Highest point End Pass type
(mag) Time Alt. Az. Time Alt. Az. Time Alt. Az.
8 Mar 5.5 09:37:12 10° ESE 09:40:10 14° ENE 09:43:09 10° NE visible
8 Mar 3.9 11:19:51 20° S 11:24:23 88° E 11:30:46 10° N visible
8 Mar 6.4 13:06:50 10° W 13:10:35 16° WNW 13:14:23 10° NNW visible
8 Mar 6.9 20:28:31 10° NNE 20:31:37 14° ENE 20:34:41 10° E visible
9 Mar 4.9 09:58:34 10° SE 10:03:25 24° E 10:08:20 10° NNE visible
9 Mar 4.6 11:42:06 10° SSW 11:48:11 56° WNW 11:54:26 10° N visible
9 Mar 6.6 20:50:56 10° NNE 20:55:54 23° ENE 21:00:49 10° ESE visible
10 Mar 4.3 10:21:03 10° SSE 10:26:49 41° E 10:32:42 10° NNE visible
10 Mar 5.5 12:06:35 10° SW 12:12:09 33° WNW 12:17:52 10° N visible
11 Mar 3.9 10:44:11 10° S 10:50:22 71° E 10:56:43 10° NNE visible
11 Mar 6.3 12:31:46 10° WSW 12:36:18 20° WNW 12:40:54 10° NNW visible
11 Mar 7.3 19:56:00 10° NE 19:57:16 11° ENE 19:58:31 10° ENE visible
12 Mar 5.2 09:25:19 10° ESE 09:29:34 19° E 09:33:51 10° NE visible
12 Mar 4.2 11:07:53 10° SSW 11:14:06 70° W 11:20:29 10° N visible
12 Mar 6.8 12:58:21 10° W 13:00:39 12° WNW 13:02:57 10° NW visible
12 Mar 6.8 20:17:21 10° NNE 20:21:39 18° ENE 20:25:54 10° ESE visible
13 Mar 4.6 09:47:26 10° SSE 09:52:54 33° E 09:58:27 10° NNE visible
13 Mar 5.2 11:32:06 10° SW 11:37:59 42° WNW 11:44:00 10° N visible
13 Mar 6.3 20:40:17 10° N 20:45:50 30° ENE 20:51:19 10° SE visible
14 Mar 4.1 10:10:18 10° SSE 10:16:23 56° E 10:22:36 10° NNE visible
14 Mar 6.0 11:56:57 10° WSW 12:02:03 25° WNW 12:07:15 10° NNW visible
15 Mar 4.0 10:33:45 10° S 10:40:02 87° W 10:46:28 10° N visible
15 Mar 6.7 12:22:45 10° W 12:26:18 15° WNW 12:29:55 10° NNW visible
15 Mar 7.0 19:43:58 10° NNE 19:47:21 15° ENE 19:50:42 10° E visible
16 Mar 4.8 10:57:45 10° SSW 11:03:51 53° WNW 11:10:07 10° N visible
16 Mar 6.6 20:06:32 10° NNE 20:11:37 24° ENE 20:16:38 10° ESE visible
17 Mar 4.3 09:36:32 10° SSE 09:42:26 44° E 09:48:27 10° NNE visible
17 Mar 5.8 11:22:19 10° SW 11:27:51 32° WNW 11:33:29 10° N visible
17 Mar 5.7 20:29:44 10° N 20:35:42 40° ENE 20:41:35 10° SE visible
